Date,TemperatureHighF,TemperatureAvgF,TemperatureLowF,DewpointHighF,DewpointAvgF,DewpointLowF,HumidityHigh,HumidityAvg,HumidityLow,PressureMaxIn,PressureMinIn,WindSpeedMaxMPH,WindSpeedAvgMPH,GustSpeedMaxMPH,PrecipitationSumIn
2013-5-1,47.0,36.0,25.0,20.0,15.4,7.0,71,46,21,0.00,40.00,13,6,19,0.00
2013-5-2,62.0,47.4,33.0,25.0,16.5,11.0,60,33,14,0.00,40.00,16,10,24,0.00
2013-5-3,64.0,52.0,42.0,41.0,23.2,13.0,89,35,20,0.00,40.00,18,11,24,0.00
2013-5-4,55.0,47.7,42.0,44.0,39.0,33.0,95,74,46,0.00,40.00,15,8,22,0.01
2013-5-5,67.0,54.4,42.0,40.0,32.4,26.0,84,48,24,0.00,40.00,12,8,22,0.01
2013-5-6,73.0,58.5,44.0,34.0,28.5,23.0,56,33,20,0.00,40.00,13,7,16,0.00
2013-5-7,76.0,63.7,48.0,37.0,30.2,25.0,52,31,17,0.00,40.00,19,10,24,0.00
2013-5-8,69.0,57.9,45.0,39.0,35.1,22.0,64,44,26,0.00,40.00,22,10,25,0.00
2013-5-9,72.0,59.1,44.0,42.0,36.9,33.0,73,46,26,0.00,40.00,12,7,27,0.00
2013-5-10,68.0,58.8,50.0,40.0,30.4,-99.9,53,37,24,0.00,40.00,24,13,34,0.00
2013-5-11,75.0,59.3,46.0,34.0,25.2,-99.9,36,28,21,0.00,40.00,13,8,19,0.00
2013-5-12,87.0,73.3,62.0,39.0,33.7,28.0,34,24,13,0.00,40.00,17,11,30,0.00
2013-5-13,90.0,77.7,69.0,44.0,34.3,25.0,34,22,11,0.00,40.00,23,11,41,0.00
2013-5-14,77.0,66.4,54.0,45.0,33.9,21.0,64,34,17,0.00,40.00,19,11,36,0.00
2013-5-15,73.0,61.9,48.0,38.0,25.3,17.0,45,25,21,0.00,40.00,17,9,24,0.00
2013-5-16,67.0,51.8,50.0,52.0,30.1,-99.9,99,66,37,0.00,40.00,15,10,29,0.29
2013-5-17,57.0,52.3,49.0,53.0,48.5,-99.9,100,95,81,0.00,40.00,12,6,16,0.56
2013-5-18,55.0,52.0,50.0,54.0,51.3,49.0,100,98,91,0.00,40.00,12,7,15,0.65
2013-5-19,51.0,49.0,48.0,51.0,49.0,48.0,100,100,100,0.00,40.00,18,12,26,1.89
2013-5-20,62.0,52.8,47.0,50.0,42.6,27.0,100,73,30,0.00,40.00,26,14,34,0.38
2013-5-21,63.0,53.3,44.0,43.0,36.7,29.0,82,58,29,0.00,40.00,21,11,32,0.00
2013-5-22,63.0,51.3,43.0,45.0,42.8,40.0,97,75,48,0.00,40.00,29,19,40,0.00
2013-5-23,69.0,56.7,49.0,52.0,45.1,41.0,100,67,44,0.00,40.00,29,18,39,0.11
2013-5-24,69.0,57.7,47.0,52.0,37.2,28.0,100,54,22,0.00,40.00,20,11,34,0.14
2013-5-25,76.0,61.1,48.0,41.0,36.0,30.0,63,41,22,0.00,40.00,23,12,36,0.00
2013-5-26,74.0,60.0,49.0,54.0,46.5,36.0,85,62,40,0.00,40.00,17,11,24,0.13
2013-5-27,62.0,54.6,48.0,51.0,46.1,40.0,98,75,47,0.00,40.00,15,7,46,0.17
2013-5-28,68.0,58.3,51.0,48.0,43.9,41.0,79,60,41,0.00,40.00,16,7,22,0.02
2013-5-29,56.0,50.2,49.0,51.0,50.1,47.0,100,99,71,0.00,40.00,14,9,24,2.13
2013-5-30,50.0,48.2,47.0,49.0,46.7,43.0,100,95,84,0.00,40.00,19,13,35,1.08
2013-5-31,52.0,47.6,44.0,45.0,41.0,38.0,97,79,63,0.00,40.00,28,17,43,0.24